Location: Unspecified
(41.9031°N, 12.4386°E)
Time: 09:24:12
(UTC+02:00)

ISS - Visible Passes

Search period start: 26 March 2017 00:00
Search period end: 05 April 2017 01:00
Orbit: 399 x 409 km, 51.6° (Epoch: 26 March)

Date Brightness Start Highest point End Pass type
(mag) Time Alt. Az. Time Alt. Az. Time Alt. Az.
26 Mar -2.1 21:06:02 10° SSW 21:07:27 22° SSW 21:07:27 22° SSW visible
27 Mar -2.3 20:14:25 10° S 20:16:51 20° SE 20:18:27 14° E visible
27 Mar -1.4 21:49:54 10° WSW 21:51:10 21° W 21:51:10 21° W visible
28 Mar -3.9 20:57:25 10° SW 21:00:40 90° NW 21:01:53 36° NE visible
29 Mar -3.5 20:05:13 10° SW 20:08:20 46° SE 20:11:29 10° ENE visible
29 Mar -1.9 21:42:03 10° W 21:44:56 28° NNW 21:45:01 28° NNW visible
30 Mar -2.7 20:49:16 10° WSW 20:52:24 42° NNW 20:55:14 12° NE visible
30 Mar -0.4 22:27:20 10° NW 22:27:55 12° NW 22:27:55 12° NW visible
31 Mar -3.6 19:56:40 10° WSW 19:59:55 73° NNW 20:03:11 10° NE visible
31 Mar -1.4 21:34:22 10° WNW 21:36:48 19° NNW 21:37:56 16° NNE visible
01 Apr -1.7 20:41:25 10° WNW 20:44:11 25° NNW 20:46:58 10° NE visible
01 Apr -0.7 22:19:30 10° NW 22:20:29 13° NNW 22:20:29 13° NNW visible
02 Apr -1.2 21:26:40 10° NW 21:28:45 16° N 21:30:15 12° NNE visible
03 Apr -1.3 20:33:41 10° WNW 20:36:02 18° NNW 20:38:22 10° NNE visible
03 Apr -0.9 22:11:18 10° NNW 22:12:35 15° N 22:12:35 15° N visible
04 Apr -1.2 21:18:41 10° NW 21:20:40 15° N 21:22:13 12° NNE visible
